Weather History for Branson, MO

Change the Weather History Date:

Thursday, March 21, 2013

  Actual Average (KHRO) Record (KHRO)
Temperature  
Mean Temperature 34 °F 50 °F  
Max Temperature 41 °F 62 °F 86 °F (1997)
Min Temperature 28 °F 39 °F 18 °F (1965)
Degree Days  
Heating Degree Days 30 15  
Month to date heating degree days 375  
Since 1 July heating degree days 3547  
Cooling Degree Days 0 0  
Month to date cooling degree days 0  
Year to date cooling degree days 0  
Moisture  
Dew Point 19 °F    
Average Humidity 64    
Maximum Humidity 100    
Minimum Humidity 33    
Precipitation  
Precipitation 0.32 in 0.13 in 1.76 in (2010)
Month to date precipitation 2.47  
Year to date precipitation 7.67  
Snow  
Snow 0.00 in 0.00 in 6.00 in (2010)
Month to date snowfall 2.0  
Since 1 July snowfall 11.2  
Snow Depth -    
Sea Level Pressure  
Sea Level Pressure 30.00 in    
Wind  
Wind Speed 5 mph (ESE)    
Max Wind Speed 15 mph    
Max Gust Speed 23 mph    
Visibility 7 miles    
Events Rain , Snow    
T = Trace of Precipitation, MM = Missing Value Source: NWS Daily Summary

Daily Weather History Graph

Daily Weather History Graph

Search for Another Location

Airport:

Trip Planner

Search our weather history database for the weather conditions in past years. The results will help you decide how hot, cold, wet, or windy it might be!

Date:

Astronomy

Mar. 21, 2013 Rise Set
Actual Time 7:14 AM CDT 7:25 PM CDT
Civil Twilight 6:48 AM CDT 7:51 PM CDT
Nautical Twilight 6:18 AM CDT 8:21 PM CDT
Astronomical Twilight 5:48 AM CDT 8:52 PM CDT
Moon 2:03 PM CDT (3/21) 3:28 AM CDT (3/21)
Length of Visible Light 13h 02m
Length of Day
12h 11m
Waxing Gibbous, 69% of the Moon is Illuminated
Mar 21
Waxing Gibbous
Mar 27
Full
Apr 2
Last Quarter
Apr 10
New
Apr 18
First Quarter

Hourly Weather History & Observations

Time (CDT) Temp. Windchill Dew Point Humidity Pressure Visibility Wind Dir Wind Speed Gust Speed Precip Events Conditions
12:15 AM 30.2 °F - 12.2 °F 47% 30.12 in 10.0 mi Calm Calm - N/A   Clear
12:35 AM 30.2 °F - 12.2 °F 47% 30.11 in 10.0 mi Calm Calm - N/A   Clear
1:15 AM 28.4 °F - 14.0 °F 55% 30.10 in 10.0 mi Calm Calm - N/A   Clear
1:35 AM 30.2 °F - 14.0 °F 51% 30.09 in 10.0 mi Calm Calm - N/A   Clear
1:55 AM 28.4 °F - 14.0 °F 55% 30.09 in 10.0 mi Calm Calm - N/A   Clear
2:15 AM 28.4 °F - 17.6 °F 64% 30.09 in 10.0 mi Calm Calm - N/A   Partly Cloudy
2:35 AM 30.2 °F - 15.8 °F 55% 30.09 in 10.0 mi Calm Calm - N/A   Scattered Clouds
2:55 AM 30.2 °F - 12.2 °F 47% 30.09 in 10.0 mi Calm Calm - N/A   Overcast
3:15 AM 30.2 °F - 12.2 °F 47% 30.09 in 10.0 mi Calm Calm - N/A   Overcast
3:35 AM 30.2 °F - 15.8 °F 55% 30.08 in 10.0 mi Calm Calm - N/A   Overcast
3:55 AM 28.4 °F - 10.4 °F 47% 30.07 in 10.0 mi Calm Calm - N/A   Overcast
4:15 AM 28.4 °F - 14.0 °F 55% 30.07 in 10.0 mi Calm Calm - N/A   Overcast
4:35 AM 28.4 °F - 10.4 °F 47% 30.05 in 10.0 mi Calm Calm - N/A   Overcast
4:55 AM 30.2 °F 25.4 °F 10.4 °F 44% 30.06 in 10.0 mi East 4.6 mph - N/A   Overcast
5:15 AM 30.2 °F 24.3 °F 10.4 °F 44% 30.05 in 10.0 mi East 5.8 mph - N/A   Overcast
5:35 AM 30.2 °F 25.4 °F 10.4 °F 44% 30.05 in 10.0 mi East 4.6 mph - N/A   Overcast
5:55 AM 30.2 °F 25.4 °F 10.4 °F 44% 30.04 in 10.0 mi East 4.6 mph - N/A   Overcast
6:15 AM 30.2 °F 25.4 °F 10.4 °F 44% 30.05 in 10.0 mi East 4.6 mph - N/A   Overcast
6:35 AM 28.4 °F 21.2 °F 10.4 °F 47% 30.05 in 10.0 mi ESE 6.9 mph - N/A   Overcast
6:49 AM 28.4 °F 22.2 °F 10.4 °F 47% 30.05 in 10.0 mi ESE 5.8 mph - N/A   Overcast
7:45 AM 30.2 °F 23.4 °F 14.0 °F 51% 30.04 in 10.0 mi ESE 6.9 mph - N/A   Overcast
8:45 AM 32.0 °F 23.6 °F 12.2 °F 44% 30.05 in 10.0 mi SE 10.4 mph - N/A   Overcast
9:45 AM 32.0 °F 23.6 °F 10.4 °F 41% 30.03 in 10.0 mi ESE 10.4 mph - N/A   Overcast
10:52 AM 35.6 °F 27.5 °F 8.6 °F 33% 30.03 in 10.0 mi ESE 11.5 mph - N/A   Overcast
11:56 AM 37.4 °F 29.8 °F 10.4 °F 33% 30.00 in 10.0 mi East 11.5 mph 17.3 mph N/A   Overcast
12:58 PM 39.2 °F 33.0 °F 12.2 °F 33% 29.98 in 10.0 mi East 9.2 mph - N/A   Overcast
1:50 PM 41.0 °F 35.2 °F 14.0 °F 33% 29.95 in 10.0 mi East 9.2 mph - N/A   Overcast
2:50 PM 39.2 °F 32.0 °F 14.0 °F 36% 29.92 in 10.0 mi SE 11.5 mph - N/A   Overcast
3:38 PM 35.6 °F 27.5 °F 24.8 °F 65% 29.91 in 2.5 mi South 11.5 mph 17.3 mph N/A Snow Light Snow
3:47 PM 32.0 °F 22.1 °F 28.4 °F 87% 29.91 in 0.5 mi SSE 13.8 mph 19.6 mph N/A Snow Snow
4:50 PM 32.0 °F 23.0 °F 30.2 °F 93% 29.88 in 0.8 mi East 11.5 mph 17.3 mph N/A Snow Snow
5:50 PM 32.0 °F 22.5 °F 32.0 °F 100% 29.87 in 2.0 mi East 12.7 mph 18.4 mph N/A Snow Light Snow
6:45 PM 32.0 °F 23.0 °F 32.0 °F 100% 29.88 in 1.0 mi East 11.5 mph - N/A Snow Light Snow
7:57 PM 32.0 °F 23.0 °F 32.0 °F 100% 29.89 in 2.5 mi East 11.5 mph - N/A Rain Light Rain
8:53 PM 32.0 °F 21.6 °F 32.0 °F 100% 29.90 in 3.0 mi ESE 15.0 mph 19.6 mph N/A Snow Light Snow
9:15 PM 32.0 °F 22.5 °F 30.2 °F 93% 29.90 in 1.0 mi ESE 12.7 mph 23.0 mph 0.06 in Snow Light Snow
9:35 PM 30.2 °F 20.2 °F 30.2 °F 100% 29.90 in 2.0 mi ESE 12.7 mph 19.6 mph 0.24 in Snow Light Snow
9:55 PM 30.2 °F 20.2 °F 30.2 °F 100% 29.90 in 3.0 mi ESE 12.7 mph - 0.25 in Rain Light Freezing Rain
10:15 PM 30.2 °F 20.2 °F 30.2 °F 100% 29.90 in 2.5 mi ESE 12.7 mph 20.7 mph N/A   Overcast
10:35 PM 30.2 °F 19.8 °F 30.2 °F 100% 29.90 in 2.5 mi ESE 13.8 mph 21.9 mph 0.02 in Snow Light Snow
10:55 PM 30.2 °F 19.8 °F 28.4 °F 93% 29.90 in 3.0 mi ESE 13.8 mph - 0.05 in Snow Light Snow
11:15 PM 30.2 °F 20.2 °F 28.4 °F 93% 29.90 in 3.0 mi ESE 12.7 mph 17.3 mph N/A Snow Light Snow
11:35 PM 30.2 °F 19.8 °F 28.4 °F 93% 29.90 in 4.0 mi ESE 13.8 mph - 0.01 in Rain Light Freezing Rain
11:55 PM 30.2 °F 20.8 °F 28.4 °F 93% 29.90 in 3.0 mi ESE 11.5 mph - 0.02 in Rain Light Freezing Rain